Location: Olomouc
(49.5830°N, 17.2500°E)
Time: 07:55:41
(UTC+02:00)

Envisat - Pass Details

Date: 07 August 2021
Orbit: 764 x 766 km, 98.2° (Epoch: 25 September)

Event Time Altitude Azimuth Distance (km) Brightness Sun altitude
Rises 04:39:35 0° 30° (NNE) 3,245 7.7 -7.8°
Reaches altitude 10° 04:43:17 10° 58° (ENE) 2,311 7.3 -7.3°
Maximum altitude 04:45:36 13° 85° (E) 2,099 6.3 -7.0°
Drops below altitude 10° 04:47:55 10° 113° (ESE) 2,302 5.9 -6.7°
Sets 04:51:34 0° 141° (SE) 3,221 6.3 -6.2°
